Flag for Honduras Weather past 2 weeks in La Ceiba, Honduras

Now
84 °F

Broken clouds.


Feels Like: 91 °F
Forecast: 73 / 88 °F
Wind: 5 mph from Northwest

Location: La Ceiba Airport

Current Time: May 27, 2015 at 10:08:34 AM

Latest Report: May 27, 2015 at 9:00 AM


Visibility: N/A

Pressure: 29.98 "Hg

Humidity: 70%

Dew point: 73 °F

Location of La CeibaLocation

Historic Weather in La Ceiba — Graph

°F

La Ceiba temperature yesterday

Maximum temperature yesterday: 90 °F (at 12:00 PM)
Minimum temperature yesterday: 73 °F (at 5:00 AM)
Average temperature yesterday: 81 °F

Past Weeks' High & Low Weather Summary

 TemperatureHumidityPressure
High90 °F (May 23, 12:00 PM)100% (May 15, 11:00 PM)30.04 "Hg (May 15, 11:00 PM)
Low70 °F (May 16, 5:00 AM)42% (May 23, 3:00 PM)29.83 "Hg (May 25, 4:00 PM)
Average81 °F80%29.93 "Hg
* Reported May 12 9:00 AM — May 27 9:00 AM, La Ceiba, Weather by CustomWeather, © 2015

Note: Actual official high and low records may vary slightly from our data, if they occured in-between our weather recording intervals... More about our weather records

Advertising

La Ceiba weather history for previous 24 hours

 ConditionsComfort  
Time TempWeatherWind HumidityBarometerVisibility
9:00 AM
Wed, May 27
84 °FBroken clouds.5 mph70%29.98 "HgN/A
8:00 AM82 °FScattered clouds.2 mph79%29.98 "HgN/A
7:00 AM77 °FPartly sunny.No wind83%29.95 "HgN/A
6:00 AM73 °FPartly sunny.No wind89%29.92 "HgN/A
5:00 AM73 °FPassing clouds.No wind89%29.92 "HgN/A
4:00 AM73 °FPassing clouds.No wind94%29.89 "HgN/A
3:00 AM73 °FPassing clouds.No wind94%29.89 "HgN/A
2:00 AM73 °FPassing clouds.No wind94%29.89 "HgN/A
1:00 AM75 °FPassing clouds.No wind89%29.89 "HgN/A
12:00 AM75 °FPassing clouds.No wind89%29.92 "HgN/A
11:00 PM
Tue, May 26
75 °FPassing clouds.5 mph89%29.92 "HgN/A
10:00 PM77 °FPassing clouds.2 mph89%29.92 "HgN/A
9:00 PM79 °FPassing clouds.3 mph84%29.92 "HgN/A
8:00 PM81 °FPassing clouds.7 mph84%29.92 "HgN/A
7:00 PM81 °FPassing clouds.9 mph84%29.89 "HgN/A
6:00 PM82 °FScattered clouds.12 mph79%29.86 "HgN/A
5:00 PM84 °FScattered clouds.16 mph74%29.86 "HgN/A
4:00 PM86 °FScattered clouds.17 mph75%29.86 "HgN/A
3:00 PM88 °FScattered clouds.17 mph70%29.89 "HgN/A
2:20 PM88 °FScattered clouds.16 mph70%29.89 "HgN/A
1:00 PM90 °FScattered clouds.12 mph67%29.89 "HgN/A
12:00 PM90 °FScattered clouds.8 mph67%29.92 "HgN/A
11:00 AM86 °FScattered clouds.6 mph70%29.95 "HgN/A
10:00 AM84 °FScattered clouds.6 mph74%29.95 "HgN/A
Weather by CustomWeather, © 2015

See weather overviewHow to use our weather pages